Regional Weather Roundup
Issued by NWS State College, PA

Home | Current Version | Previous Version | Graphics & Text | Print | Product List | Glossary Off
Versions: 1 2 3 4 5 6 7 8 9 10 11 12 13 14 15 16 17 18 19 20 21 22 23 24 25 26 27 28 29 30 31 32 33 34 35 36 37 38 39 40 41 42 43 44 45 46 47 48 49 50

000
ASUS41 KCTP 051903
RWRCTP

REGIONAL WEATHER ROUNDUP
NATIONAL WEATHER SERVICE STATE COLLEGE PA
200 PM EST FRI FEB 05 2016

Note: "fair" indicates few or no clouds below 12,000 feet with no
significant weather and/or obstructions to visibility.

* = STATION THAT DOES NOT REPORT PRECIPITATION /E.G. RAIN...SNOW...ETC/
    THUNDER OR FOG.

PAZ002>004-007>009-013>016-020>023-029>032-052000-
WESTERN PENNSYLVANIA

CITY           SKY/WX    TMP DP  RH WIND       PRES   REMARKS
ERIE           MOSUNNY   31  19  61 W8        30.33F
MEADVILLE      PTSUNNY   30  15  53 W8        30.30S
FRANKLIN*      PTSUNNY   30  18  59 W12       30.31S
NEW CASTLE     MOCLDY    32  17  54 W6        30.34S
BEAVER COUNTY  PTSUNNY   34  18  51 W7        30.32F
BUTLER*        PTSUNNY   34  18  51 W5        30.35F
PITTSBURGH INT MOSUNNY   33  15  47 W9        30.32F
PITTSBURGH     MOSUNNY   35  16  45 W12       30.31F
INDIANA*       PTSUNNY   32  19  59 W8G15     30.32S
LATROBE        NOT AVBL
WASHINGTON CO* MOSUNNY   36  18  48 W7        30.33F
$$

PAZ004>006-010>012-017>019-024>028-033>037-041-042-045-046-049>053-052000-
CENTRAL PENNSYLVANIA

CITY           SKY/WX    TMP DP  RH WIND       PRES   REMARKS
BRADFORD       CLOUDY    26  16  65 W8        30.21S
DUBOIS         CLOUDY    29  16  58 NW12      30.24S
CLEARFIELD     CLOUDY    33  18  53 W13       30.24F
JOHNSTOWN        N/A    N/A N/A N/A MISG      30.22S
ALTOONA        PTSUNNY   32  16  51 NW18G25   30.25S
STATE COLLEGE  PTSUNNY   34  18  51 NW10G17   30.23S
WILLIAMSPORT   PTSUNNY   39  16  39 NW10      30.22S
SELINSGROVE    CLOUDY    37  23  56 N13       30.23S
FT INDIANTOWN  MOSUNNY   39  22  51 VRB7G25   30.21S
CAPITAL CITY   CLOUDY    39  22  50 NW6       30.23S
HARRISBURG     PTSUNNY   37  24  59 N8        30.23R
YORK           CLOUDY    38  21  50 NW16G25   30.23R
$$

PAZ038>040-043-044-047-048-054-055-060>062-067>071-052000-
EASTERN PENNSYLVANIA

CITY           SKY/WX    TMP DP  RH WIND       PRES   REMARKS
SCRANTON       CLOUDY    33  18  53 NW13      30.17R
MOUNT POCONO   CLOUDY    31  15  52 NW15G26   30.07R
ALLENTOWN      CLOUDY    40  17  39 NW18G25   30.16R
QUAKERTOWN*    MOCLDY    39  18  41 NW13G24   30.15R
READING        MOSUNNY   39  23  52 W17G28    30.18R
LANCASTER      MOSUNNY   38  23  55 NW17G25   30.21S
COATESVILLE    PTCLDY    39  30  70 NW15G28   30.19R
POTTSTOWN      PTSUNNY   40  19  43 NW12G23   30.17R
BLUE BELL        N/A     39  21  48 NW7       30.15R
DOYLESTOWN     CLOUDY    38  19  46 NW13G25   30.13R
WILLOW GROVE   NOT AVBL
NORTH PHILA    CLOUDY    42  22  44 NW15G26   30.16S
PHILADELPHIA   PTSUNNY   42  20  41 NW15      30.17S
$$



USA.gov is the U.S. government's official web portal to all federal, state and local government web resources and services.